Weather Roundup
Issued by NWS Chicago, IL

Home | Current Version | Previous Version | Text Only | Print | Product List | Glossary On
Versions: 1 2 3 4 5 6 7 8 9 10 11 12 13 14 15 16 17 18 19 20 21 22 23 24 25 26 27 28 29 30 31 32 33 34 35 36 37 38 39 40 41 42 43 44 45 46 47 48 49 50
000
NZUS59 KLOT 250408
HRRLOT

CHICAGO AREA WEATHER ROUNDUP
NATIONAL WEATHER SERVICE CHICAGO/ROMEOVILLE IL
1100 PM CDT SUN JUL 24 2016

NOTE: "FAIR" INDICATES FEW OR NO CLOUDS BELOW 12,000 FEET WITH NO
SIGNIFICANT WEATHER AND/OR OBSTRUCTIONS TO VISIBILITY.

* THESE STATIONS ARE NOT UNDER NWS QUALITY CONTROL. THEY ALSO MAY NOT
  REPORT WEATHER SUCH AS PRECIPITATION OR FOG.

ILZ005-006-012>014-019>023-250500-
NORTHEAST ILLINOIS

CITY           SKY/WX    TMP DP  RH WIND       PRES   REMARKS
OHARE          CLOUDY    78  71  79 SW7       29.89S HX  80
MIDWAY         CLOUDY    77  68  73 SW14      29.90R
AURORA         CLOUDY    76  70  82 SE6       29.91S
LANSING*       CLOUDY    74  68  81 SW12      29.94R
JOLIET*        CLOUDY    77  69  77 S9        29.92R
WAUKEGAN       CLOUDY    79  71  76 SW5       29.86S HX  82
DUPAGE AIRPORT CLOUDY    77  67  71 S7        29.91R
WHEELING       CLOUDY    79  71  76 SW6       29.90R HX  82
KANKAKEE*      CLOUDY    70  66  88 S12G17    29.98R
MORRIS*        CLOUDY    73  68  86 S7        29.91R
LEWIS AIRPORT* CLOUDY    74  67  79 S8        29.92S
NORTHERLY ISL    N/A     77  67  71 SW7         N/A
$$

WIZ051-052-058>065-066-070>072-250500-
SOUTHEAST WISCONSIN

CITY           SKY/WX    TMP DP  RH WIND       PRES   REMARKS
MILWAUKEE      CLOUDY    83  69  62 W6        29.87R HX  86
KENOSHA*       MOCLDY    81  70  69 NW7       29.88F HX  84
RACINE*        CLOUDY    81  71  71 W5        29.89S HX  85
BURLINGTON     CLOUDY    75  71  87 CALM      29.89S
WAUKESHA       CLOUDY    75  64  69 W6        29.90R
$$

INZ001>003-010>013-019-020-250500-
NORTHWEST INDIANA

CITY           SKY/WX    TMP DP  RH WIND       PRES   REMARKS
GARY*          CLOUDY    73  73 100 SW7       29.92R
MICHIGAN CITY* NOT AVBL
RENSSELAER*    NOT AVBL
VALPARAISO     LGT RAIN  72  68  87 S6        29.94R
$$

LMZ740>746-250500-
SOUTHERN LAKE MICHIGAN

STATION/POSITION TIME  SKY/WX   TEMP WIND        PRES    VSBY
                                AIR  DIR/SP/G
                 (UTC)          (F)  (DEG/KT/KT) (MB)    (MI)
HARRISON CRIB    0300            83  210/ 14/ 15   N/A
BURNHAM HARBOR   0400            77  240/  8/ 11   N/A
CALUMET HARBOR   0300                            1011.7
BURNS HARBOR     0321            76  190/  8/ 14 1012.9R
MICHIGAN CITY    0300            76  220/  4/  4   N/A
$$

ABBREVIATIONS USED IN REMARKS
   TC - TEMPERATURE IN CELSIUS
  WCI - WIND CHILL INDEX
   HX - HEAT INDEX
  VSB - VISIBILITY
$$




USA.gov is the U.S. government's official web portal to all federal, state and local government web resources and services.